Regional Weather Roundup
Issued by NWS

Home | Current Version | Previous Version | Text Only | Print | Product List | Glossary Off
Versions: 1 2 3 4 5 6 7 8 9 10 11 12 13 14 15 16 17 18 19 20 21 22 23 24 25 26 27 28 29 30 31 32 33 34 35 36 37 38 39 40 41 42 43 44 45 46 47 48 49 50

980
ASUS43 KDTX 202001
RWRMI
MICHIGAN HOURLY REGIONAL WEATHER ROUNDUP
NATIONAL WEATHER SERVICE DETROIT/PONTIAC MI
300 PM EST FRI JAN 20 2017

NOTE: "FAIR" INDICATES FEW OR NO CLOUDS BELOW 12,000 FEET WITH NO
SIGNIFICANT WEATHER AND/OR OBSTRUCTION TO VISIBILITY.

MIZ047>049-052>055-059>063-066>070-074>076-081>083-202100-
SOUTHEAST LOWER MICHIGAN

CITY           SKY/WX    TMP DP  RH WIND       PRES   REMARKS
ADRIAN         FOG       39  39 100 W5        29.66S VSB 1/2
ALMA           CLOUDY    34  34  99 E5        29.66S FOG     WCI  30
ANN ARBOR      FOG       38  38 100 CALM      29.65R VSB 1/2
BAD AXE        LGT SNOW  35  35 100 E5        29.67F VSB 1   WCI  31
CARO           CLOUDY    35  35  99 E5        29.65S FOG     WCI  31
DETROIT CITY   FOG       37  37 100 CALM      29.66R VSB 3/4
DETROIT        FOG       39  38  96 CALM      29.66R VSB 1/2
FLINT          FOG       36  35  96 SE6       29.65R VSB 1   WCI  31
GROSSE ILE     FOG       39  38  99 CALM      29.65R VSB 1/4
HILLSDALE      FOG       37  37 100 SW6       29.64R VSB 1   WCI  33
HOWELL         FOG       37  36  96 SE3       29.64S VSB 1

CITY           SKY/WX    TMP DP  RH WIND       PRES   REMARKS
JACKSON        CLOUDY    39  37  92 SW5       29.65R FOG
LAMBERTVILLE   FOG       44  42  93 W3        29.66R VSB 3/4
LANSING        CLOUDY    36  34  92 NE3       29.65R FOG
LAPEER         CLOUDY    36  36 100 E6        29.65R FOG     WCI  31
MASON          CLOUDY    37  36  99 CALM      29.66R FOG
MONROE         FOG       39  39 100 CALM      29.65S VSB 1/2
MT. CLEMENS    FOG       37  37 100 NE3       29.64S VSB 1/2
PONTIAC        FOG       36  35  96 SE5       29.63R VSB 1   WCI  32
PORT HOPE        N/A     35  34  96 E7        29.66F WCI  29
PORT HURON     FOG       37  37 100 CALM      29.66S VSB 3/4
TRI CITIES     LGT RAIN  34  34 100 NE8       29.66F VSB 3/4 WCI  27
MIDLAND        CLOUDY    35  33  94 NE7       29.66F FOG     WCI  29
TROY           FOG       37  36  94 CALM      29.68R VSB 1
SAGINAW HB     DRZL/FOG  34  32  93 NE5       29.66S VSB 1   WCI  30
$$
MIZ043>046-050>051-056>058-064>065-071>073-077>080-202100-
SOUTHWEST LOWER MICHIGAN

CITY           SKY/WX    TMP DP  RH WIND       PRES   REMARKS
BATTLE CREEK   CLOUDY    39  38  96 SW7       29.66R FOG     WCI  34
BENTON HARBOR  CLOUDY    41  39  93 CALM      29.63F FOG
BIG RAPIDS     CLOUDY    34  32  94 E5        29.63F FOG     WCI  30
COLDWATER      CLOUDY    40  40 100 W5        29.65S FOG
FREMONT        CLOUDY    35  35 100 E3        29.63S
HOLLAND        CLOUDY    37  35  92 SE8       29.66R WCI  31
GRAND RAPIDS   CLOUDY    36  33  89 SE5       29.66R FOG     WCI  32
IONIA          CLOUDY    34  34  99 SE5       29.66R FOG     WCI  30
KALAMAZOO      FOG       39  36  89 SW7       29.66R VSB 3/4 WCI  34
LUDINGTON      CLOUDY    38  35  87 E5        29.62F FOG     WCI  35
MARSHALL       CLOUDY    39  38  97 SW6       29.65S FOG     WCI  35
MOUNT PLEASANT CLOUDY    34  34  98 NE5       29.64F FOG     WCI  30
MUSKEGON       CLOUDY    38  35  89 SE7       29.66R FOG     WCI  33
SOUTH HAVEN    CLOUDY    40  39  97 CALM      29.64F FOG
$$
MIZ016>042-202100-
NORTHERN LOWER MICHIGAN

CITY           SKY/WX    TMP DP  RH WIND       PRES   REMARKS
ALPENA         FOG       34  32  92 SE8       29.70F VSB 1/2 WCI  27
BEAVER ISLAND  CLOUDY    33  33 100 E9        29.68S FOG     WCI  25
BELLAIRE       CLOUDY    39  33  79 CALM      29.66F
CADILLAC       CLOUDY    35  32  88 SE6       29.64S WCI  30
CHARLEVOIX     CLOUDY    36  34  92 E5        29.69S WCI  32
FRANKFORT      CLOUDY    40  34  80 NE3       29.65S
GAYLORD        CLOUDY    35  30  82 CALM      29.64F
GRAYLING       CLOUDY    36  33  87 SE7       29.66S WCI  30
HARBOR SPRINGS CLOUDY    34  32  92 E7        29.67S WCI  28
HOUGHTON LAKE  CLOUDY    36  32  85 E7        29.65F WCI  30
MANISTEE       CLOUDY    39  33  79 NE5       29.64F
OSCODA         FOG       36  35  96 E6        29.68F VSB 1   WCI  31
PELLSTON       CLOUDY    34  31  88 E7        29.68S WCI  28
ROGERS CITY    CLOUDY    34  33  95 E8        29.70F FOG     WCI  27
TRAVERSE CITY  CLOUDY    37  33  85 CALM      29.65S
$$
MIZ007>008-015-202100-
EASTERN UPPER MICHIGAN

CITY           SKY/WX    TMP DP  RH WIND       PRES   REMARKS
KINROSS        MIX PCPN  34  33  96 E8        29.69F VSB 1/4 WCI  27
MACKINAC ISLAN FOG       33  33 100 E7G16     29.68F VSB 3/4 WCI  27
NEWBERRY       FOG       33  32  97 E5        29.67S VSB 1/2 WCI  28
S. S. MARIE    CLOUDY    35  33  92 E7        29.70S FOG     WCI  29
MUNISING         N/A     36  33  89 S7        29.66S WCI  30
$$
MIZ004>006-011>014-085-202100-
CENTRAL UPPER MICHIGAN

CITY           SKY/WX    TMP DP  RH WIND       PRES   REMARKS
MANISTIQUE     FOG       32  32  99 SE8       29.69R VSB 3/4 WCI  25
ESCANABA       LGT RAIN  35  33  92 SE3       29.70R
SAWYER-GWINN   CLOUDY    34  32  93 CALM      29.64F
$$
MIZ001>003-009>011-084-202100-
WESTERN UPPER MICHIGAN

CITY           SKY/WX    TMP DP  RH WIND       PRES   REMARKS
IRON MOUNTAIN  LGT SNOW  34  30  85 SE5       29.66S FOG     WCI  30
HOUGHTON       CLOUDY    37  29  72 CALM      29.62F
COPPER HARBOR    N/A     39  32  76 VRB3      29.64S
IRONWOOD       LGT RAIN  38  35  89 E5        29.62F WCI  34
$$

ABBREVIATIONS USED IN REMARKS
   TC - TEMPERATURE IN CELSIUS
  WCI - WIND CHILL INDEX
   HX - HEAT INDEX
  VSB - VISIBILITY





USA.gov is the U.S. government's official web portal to all federal, state and local government web resources and services.